Previsão horária em Jugsalai

Hoje, 21 Junho, Segunda-feira

Tempo Temperatura Precipitação Vento Pressão Humidade
00:00 +31°C° 0 mm 1 m/s 738 mmHg 73%
01:00 +30°C° 0.6 mm 1 m/s 737 mmHg 74%
02:00 +30°C° 0.6 mm 1 m/s 737 mmHg 76%
03:00 +30°C° 0.6 mm 1 m/s 737 mmHg 77%
04:00 +29°C° 0.1 mm 1 m/s 737 mmHg 78%
05:00 +29°C° 0.1 mm 1 m/s 737 mmHg 80%
06:00 +29°C° 0.1 mm 1 m/s 737 mmHg 82%
07:00 +29°C° 0 mm 1 m/s 738 mmHg 80%
08:00 +30°C° 0 mm 1 m/s 738 mmHg 78%
09:00 +30°C° 0 mm 2 m/s 739 mmHg 76%
10:00 +31°C° 0 mm 2 m/s 738 mmHg 69%
11:00 +34°C° 0 mm 2 m/s 738 mmHg 62%
12:00 +35°C° 0 mm 2 m/s 738 mmHg 55%
13:00 +36°C° 0 mm 2 m/s 737 mmHg 52%
14:00 +37°C° 0 mm 2 m/s 737 mmHg 49%
15:00 +38°C° 0 mm 2 m/s 736 mmHg 47%
16:00 +36°C° 0.1 mm 2 m/s 736 mmHg 53%
17:00 +34°C° 0.1 mm 1 m/s 736 mmHg 59%
18:00 +32°C° 0.1 mm 1 m/s 736 mmHg 65%
19:00 +32°C° 0.1 mm 1 m/s 737 mmHg 66%
20:00 +32°C° 0.1 mm 1 m/s 737 mmHg 67%
21:00 +32°C° 0.1 mm 1 m/s 737 mmHg 69%
22:00 +31°C° 0 mm 1 m/s 737 mmHg 70%
23:00 +31°C° 0 mm 1 m/s 737 mmHg 72%

Amanhã, 22 Junho, Terça-feira

Tempo Temperatura Precipitação Vento Pressão Humidade
00:00 +31°C° 0 mm 1 m/s 737 mmHg 73%
01:00 +30°C° 0 mm 1 m/s 737 mmHg 74%
02:00 +30°C° 0 mm 1 m/s 736 mmHg 74%
03:00 +30°C° 0 mm 1 m/s 736 mmHg 74%
04:00 +30°C° 0 mm 1 m/s 737 mmHg 75%
05:00 +30°C° 0 mm 1 m/s 737 mmHg 76%
06:00 +30°C° 0 mm 1 m/s 737 mmHg 76%
07:00 +31°C° 0 mm 1 m/s 738 mmHg 71%
08:00 +32°C° 0 mm 2 m/s 738 mmHg 65%
09:00 +34°C° 0 mm 2 m/s 738 mmHg 60%
10:00 +35°C° 0 mm 2 m/s 738 mmHg 56%
11:00 +37°C° 0 mm 3 m/s 738 mmHg 52%
12:00 +38°C° 0 mm 3 m/s 738 mmHg 48%
13:00 +38°C° 0 mm 3 m/s 737 mmHg 46%
14:00 +39°C° 0 mm 2 m/s 737 mmHg 44%
15:00 +39°C° 0 mm 2 m/s 736 mmHg 43%
16:00 +38°C° 0 mm 2 m/s 736 mmHg 47%
17:00 +37°C° 0 mm 3 m/s 736 mmHg 51%
18:00 +36°C° 0 mm 3 m/s 736 mmHg 55%
19:00 +35°C° 0.3 mm 2 m/s 737 mmHg 60%
20:00 +34°C° 0.3 mm 2 m/s 737 mmHg 66%
21:00 +31°C° 0.3 mm 1 m/s 738 mmHg 71%
22:00 +31°C° 0.1 mm 1 m/s 737 mmHg 72%
23:00 +31°C° 0.1 mm 1 m/s 737 mmHg 73%

Depois de amanhã, 23 Junho, Quarta-feira

Tempo Temperatura Precipitação Vento Pressão Humidade
00:00 +31°C° 0.1 mm 1 m/s 737 mmHg 74%
01:00 +31°C° 0 mm 1 m/s 737 mmHg 74%
02:00 +31°C° 0 mm 1 m/s 737 mmHg 75%
03:00 +30°C° 0 mm 1 m/s 737 mmHg 76%
04:00 +30°C° 0 mm 1 m/s 737 mmHg 77%
05:00 +30°C° 0 mm 1 m/s 737 mmHg 77%
06:00 +30°C° 0 mm 2 m/s 737 mmHg 78%
07:00 +31°C° 0 mm 2 m/s 738 mmHg 72%
08:00 +32°C° 0 mm 2 m/s 738 mmHg 66%
09:00 +35°C° 0 mm 3 m/s 739 mmHg 59%
10:00 +36°C° 0 mm 3 m/s 739 mmHg 55%
11:00 +37°C° 0 mm 3 m/s 739 mmHg 51%
12:00 +38°C° 0 mm 3 m/s 738 mmHg 47%
13:00 +39°C° 0 mm 3 m/s 738 mmHg 45%
14:00 +39°C° 0 mm 2 m/s 737 mmHg 44%
15:00 +40°C° 0 mm 2 m/s 737 mmHg 42%
16:00 +39°C° 0 mm 2 m/s 736 mmHg 45%
17:00 +38°C° 0 mm 2 m/s 736 mmHg 48%
18:00 +37°C° 0 mm 2 m/s 736 mmHg 51%
19:00 +35°C° 0.6 mm 2 m/s 737 mmHg 60%
20:00 +32°C° 0.6 mm 2 m/s 737 mmHg 68%
21:00 +31°C° 0.6 mm 2 m/s 738 mmHg 77%
22:00 +30°C° 0.3 mm 2 m/s 738 mmHg 78%
23:00 +30°C° 0.3 mm 1 m/s 738 mmHg 79%

24 Junho, Quinta-feira

Tempo Temperatura Precipitação Vento Pressão Humidade
00:00 +30°C° 0.3 mm 1 m/s 738 mmHg 79%
01:00 +30°C° 0 mm 1 m/s 737 mmHg 80%
02:00 +30°C° 0 mm 2 m/s 737 mmHg 81%
03:00 +30°C° 0 mm 2 m/s 736 mmHg 81%
04:00 +30°C° 0 mm 2 m/s 737 mmHg 81%
05:00 +29°C° 0 mm 2 m/s 737 mmHg 81%
06:00 +29°C° 0 mm 2 m/s 737 mmHg 81%
07:00 +31°C° 0 mm 2 m/s 737 mmHg 74%
08:00 +33°C° 0 mm 3 m/s 737 mmHg 68%
09:00 +34°C° 0 mm 3 m/s 738 mmHg 62%
10:00 +36°C° 0 mm 3 m/s 737 mmHg 57%
11:00 +37°C° 0 mm 3 m/s 737 mmHg 52%
12:00 +38°C° 0 mm 3 m/s 737 mmHg 48%
13:00 +39°C° 0.1 mm 3 m/s 736 mmHg 46%
14:00 +39°C° 0.1 mm 3 m/s 735 mmHg 45%
15:00 +39°C° 0.1 mm 3 m/s 735 mmHg 43%
16:00 +38°C° 0.1 mm 2 m/s 735 mmHg 48%
17:00 +37°C° 0.1 mm 2 m/s 735 mmHg 52%
18:00 +36°C° 0.1 mm 2 m/s 734 mmHg 57%
19:00 +34°C° 0.9 mm 2 m/s 735 mmHg 65%
20:00 +32°C° 0.9 mm 2 m/s 735 mmHg 73%
21:00 +30°C° 0.9 mm 1 m/s 735 mmHg 81%
22:00 +30°C° 0.2 mm 1 m/s 736 mmHg 81%
23:00 +30°C° 0.2 mm 2 m/s 736 mmHg 81%

25 Junho, Sexta-feira

Tempo Temperatura Precipitação Vento Pressão Humidade
00:00 +30°C° 0.2 mm 2 m/s 736 mmHg 81%
01:00 +30°C° 0.3 mm 2 m/s 735 mmHg 82%
02:00 +29°C° 0.3 mm 2 m/s 735 mmHg 82%
03:00 +29°C° 0.3 mm 2 m/s 735 mmHg 83%
04:00 +29°C° 0.5 mm 2 m/s 735 mmHg 83%
05:00 +29°C° 0.5 mm 2 m/s 735 mmHg 83%
06:00 +29°C° 0.5 mm 2 m/s 735 mmHg 84%
07:00 +30°C° 0.1 mm 3 m/s 735 mmHg 78%
08:00 +31°C° 0.1 mm 3 m/s 736 mmHg 72%
09:00 +34°C° 0.1 mm 3 m/s 736 mmHg 67%
10:00 +35°C° 0 mm 3 m/s 736 mmHg 61%
11:00 +37°C° 0 mm 3 m/s 735 mmHg 56%
12:00 +38°C° 0 mm 3 m/s 735 mmHg 50%
13:00 +38°C° 0 mm 3 m/s 734 mmHg 49%
14:00 +39°C° 0 mm 3 m/s 734 mmHg 49%
15:00 +39°C° 0 mm 2 m/s 733 mmHg 48%
16:00 +37°C° 0.6 mm 3 m/s 733 mmHg 55%
17:00 +35°C° 0.6 mm 4 m/s 733 mmHg 62%
18:00 +34°C° 0.6 mm 4 m/s 733 mmHg 69%
19:00 +33°C° 0.9 mm 4 m/s 734 mmHg 73%
20:00 +31°C° 0.9 mm 3 m/s 735 mmHg 77%
21:00 +30°C° 0.9 mm 3 m/s 735 mmHg 81%
22:00 +30°C° 0.7 mm 3 m/s 735 mmHg 83%
23:00 +29°C° 0.7 mm 2 m/s 736 mmHg 84%

26 Junho, Sábado

Tempo Temperatura Precipitação Vento Pressão Humidade
00:00 +29°C° 0.7 mm 2 m/s 736 mmHg 86%
01:00 +29°C° 0.2 mm 2 m/s 735 mmHg 85%
02:00 +29°C° 0.2 mm 2 m/s 735 mmHg 85%
03:00 +29°C° 0.2 mm 2 m/s 735 mmHg 85%
04:00 +28°C° 0.3 mm 2 m/s 735 mmHg 85%
05:00 +28°C° 0.3 mm 3 m/s 735 mmHg 85%
06:00 +28°C° 0.3 mm 3 m/s 735 mmHg 85%
07:00 +28°C° 0.5 mm 3 m/s 736 mmHg 83%
08:00 +29°C° 0.5 mm 3 m/s 736 mmHg 80%
09:00 +29°C° 0.5 mm 3 m/s 736 mmHg 77%
10:00 +31°C° 0 mm 3 m/s 736 mmHg 72%
11:00 +33°C° 0 mm 3 m/s 736 mmHg 67%
12:00 +34°C° 0 mm 3 m/s 736 mmHg 62%
13:00 +34°C° 0 mm 3 m/s 736 mmHg 62%
14:00 +35°C° 0 mm 2 m/s 736 mmHg 62%
15:00 +35°C° 0 mm 2 m/s 735 mmHg 62%
16:00 +34°C° 1.8 mm 2 m/s 735 mmHg 67%
17:00 +33°C° 1.8 mm 3 m/s 735 mmHg 73%
18:00 +31°C° 1.8 mm 3 m/s 735 mmHg 78%
19:00 +31°C° 2.4 mm 2 m/s 735 mmHg 78%
20:00 +30°C° 2.4 mm 2 m/s 736 mmHg 78%
21:00 +29°C° 2.4 mm 1 m/s 736 mmHg 78%
22:00 +29°C° 0.2 mm 1 m/s 736 mmHg 79%
23:00 +29°C° 0.2 mm 1 m/s 736 mmHg 80%
Mostrar mais

Necessitamos do seu Consentimento

A Meteoprog e os seus Fornecedores de Serviços podem armazenar e aceder a dados pessoais como cookies, identificadores do dispositivo ou outras tecnologias semelhantes existentes no seu dispositivo e processar estes dados para personalizar conteúdos e anúncios, assim como funcionalidades nas redes sociais e análise de tráfego.

  • Armazenar e/ou aceder a informações no seu dispositivo

    Os cookies, identificadores do dispositivo ou outras informações podem ser armazenados ou acedidos no seu dispositivo, para os fins acima indicados.

  • Anúncios e conteúdos personalizados, medição de anúncios e conteúdos, dados sobre o público-alvo e desenvolvimento de produtos

    Os anúncios e os conteúdos podem ser personalizados com base num perfil. Podem ser adicionados dados adicionais para uma maior personalização dos anúncios e dos conteúdos. A eficácia dos anúncios e dos conteúdos pode ser medida. Podem ser obtidas informações sobre o público que visualizou os anúncios e os conteúdos. Estes dados podem ser usados para desenvolver ou melhorar sistemas, softwares ou a experiência do utilizador.

Ao clicar em "Eu concordo”, permitirá o uso de cookies, identificadores do dispositivo e web beacons mencionados ou outras tecnologias semelhantes. As configurações do navegador do seu dispositivo podem ser alteradas.

Para certos fins, podem ser invocados interesses legítimos ao invés de consentimento. Pode ler mais informação sobre este assunto na nossa Política de Privacidade e Cookies.